Location: Asheville, NC
(35.6000°N, 82.5500°W)
Time: 03:47:52
(UTC-05:00)

Vanguard 3 - Pass Details

Date: 15 December 2017
Orbit: 508 x 3264 km, 33.4° (Epoch: 20 January)

Event Time Altitude Azimuth Distance (km) Brightness Sun altitude
Rises 13:31:58 0° 259° (W) 3,165 10.5 29.0°
Reaches altitude 10° 13:34:42 10° 256° (WSW) 2,004 9.7 28.9°
Maximum altitude 13:38:55 61° 176° (S) 596 7.6 28.6°
Drops below altitude 10° 13:42:31 10° 95° (E) 1,711 8.8 28.3°
Sets 13:44:41 0° 92° (E) 2,645 9.6 28.2°
